Location: Newark
(13.8117°N, 3.6025°W)
Time: 18:23:00
(UTC+00:00)

Explorer 11/Cluster Stage 4 - Pass Details

Date: 28 August 2019
Orbit: 467 x 1259 km, 28.8° (Epoch: 17 October)

Event Time Altitude Azimuth Distance (km) Brightness Sun altitude
Rises 12:15:00 0° 302° (WNW) 4,118 10.2 85.9°
Reaches altitude 10° 12:18:10 10° 311° (NW) 3,201 9.8 85.8°
Maximum altitude 12:25:30 35° 14° (NNE) 1,907 9.0 85.2°
Drops below altitude 10° 12:32:40 10° 77° (ENE) 3,124 9.7 84.2°
Sets 12:35:43 0° 86° (E) 4,009 10.2 83.6°
